CZ-6 R/B (44784 NORAD) Tracking and Keplerian Element Data

This shows tracking and keplerian element data for the satellite.

Feedback or suggestion? Click here.




ElementValue
Catalog44784
NameCZ-6 R/B
Epoch Orbit427
Epoch Day347.35105302
Epoch Year2019
RAAN357.4203
Inclination45.0119
Eccentricity0.0087982
Argument of Perigee149.3437
Mean Anonmoly211.2477
Mean Motion14.17440385
Decay Rate-1.35E-06
L11 44784U 19076F 19347.35105302 -.00000135 00000-0 00000+0 0 9992
L22 44784 45.0119 357.4203 0087982 149.3437 211.2477 14.17440385 4272

Live tracking and technical data element details for CZ-6 R/B (NORAD 44784). CZ-6 R/B can be tracked NOW for your location showing map with azimuth and elevation plus other details from your city location.

Track the satellite on the map from your city or location and see movement details for azimuth, elevation, latitude, longitude, range, height, and movement on the map or in text.







IsCatalogInMostPopularTable: catalog: 44784, numindb: 19
Update: records affected: 1



GetName: 44784 CZ-6 R/B

Hit Count: updated at: Mon, 20 Jan 2020 04:24:27 GMT